sat.trackr.live / text

‹ back to catalog

STARLINK-2443

NORAD 48107 · 2021-027R

PAYLOAD ACTIVE UNKNOWN

§ Identity

Operator
Country
US
Launch date
2021-04-07
Launch site
AFETR
Launch vehicle
Mass (kg)
RCS (m²)

Purposes: comms

External: N2YO · Heavens-Above · Gunter

§ Orbital elements

Epoch: 2026-05-25T00:46:30.669888Z

Period
94.01 min
Inclination
53.1592°
Eccentricity
0.0002045
Mean motion
15.31708550 rev/d
Perigee alt
469.3 km
Apogee alt
472.1 km
Semi-major
6,848.9 km
B*
8.0694e-5
RAAN
157.7143°
Arg perigee
84.6730°
Mean anomaly
275.4504°
Rev number
28,437

§ Raw data

STARLINK-24431 48107U 21027R   26145.03229942  .00002140  00000+0  80694-4 0  99982 48107  53.1592 157.7143 0002045  84.6730 275.4504 15.31708550284370

JSON: /api/v1/satellites/48107 · /tle

For live sub-satellite position, see the globe view (requires WebGL).

§ Visibility from observer

Set your observer location to see the next 7 days of passes ≥ 10°. The values pass through the URL so the page stays shareable.

No JS? Fill the form by hand. The geolocation button needs JavaScript.